Time,TemperatureF,DewpointF,PressureIn,WindDirection,WindDirectionDegrees,WindSpeedMPH,WindSpeedGustMPH,Humidity,HourlyPrecipIn,Conditions,Clouds,dailyrainin,SoftwareType,DateUTC
2013-04-21 00:02:00,25.4,20.0,30.50,NW,326,0.0,0.0,80,0.00,,,0.00,weatherlink.com 1.10,2013-04-21 04:02:00,
2013-04-21 00:17:00,24.8,21.0,30.51,NW,326,0.0,0.0,84,0.00,,,0.00,weatherlink.com 1.10,2013-04-21 04:17:00,
2013-04-21 00:32:00,24.4,21.0,30.51,NW,326,0.0,0.0,86,0.00,,,0.00,weatherlink.com 1.10,2013-04-21 04:32:00,
2013-04-21 00:47:00,24.2,20.0,30.52,NW,326,0.0,0.0,84,0.00,,,0.00,weatherlink.com 1.10,2013-04-21 04:47:00,
2013-04-21 01:02:00,23.4,20.0,30.52,NW,326,0.0,0.0,86,0.00,,,0.00,weatherlink.com 1.10,2013-04-21 05:02:00,
2013-04-21 01:17:00,23.7,21.0,30.53,NW,326,0.0,0.0,88,0.00,,,0.00,weatherlink.com 1.10,2013-04-21 05:17:00,
2013-04-21 01:32:00,23.2,20.0,30.53,NW,326,0.0,0.0,86,0.00,,,0.00,weatherlink.com 1.10,2013-04-21 05:32:00,
2013-04-21 01:47:00,23.4,20.0,30.53,NW,326,0.0,0.0,86,0.00,,,0.00,weatherlink.com 1.10,2013-04-21 05:47:00,
2013-04-21 02:02:00,23.1,20.0,30.53,NW,326,0.0,0.0,88,0.00,,,0.00,weatherlink.com 1.10,2013-04-21 06:02:00,
2013-04-21 02:18:00,22.8,20.0,30.53,NW,326,0.0,0.0,89,0.00,,,0.00,weatherlink.com 1.10,2013-04-21 06:18:00,
2013-04-21 02:33:00,22.2,20.0,30.53,NW,326,0.0,0.0,89,0.00,,,0.00,weatherlink.com 1.10,2013-04-21 06:33:00,
2013-04-21 02:48:00,22.2,19.0,30.53,NW,326,0.0,0.0,88,0.00,,,0.00,weatherlink.com 1.10,2013-04-21 06:48:00,
2013-04-21 03:03:00,22.3,19.0,30.53,NW,326,0.0,0.0,88,0.00,,,0.00,weatherlink.com 1.10,2013-04-21 07:03:00,
2013-04-21 03:18:00,21.9,20.0,30.53,NW,326,0.0,0.0,90,0.00,,,0.00,weatherlink.com 1.10,2013-04-21 07:18:00,
2013-04-21 03:33:00,21.9,19.0,30.54,NW,326,0.0,0.0,89,0.00,,,0.00,weatherlink.com 1.10,2013-04-21 07:33:00,
2013-04-21 03:48:00,21.6,19.0,30.54,NW,326,0.0,0.0,90,0.00,,,0.00,weatherlink.com 1.10,2013-04-21 07:48:00,
2013-04-21 04:03:00,21.5,19.0,30.54,NW,326,0.0,0.0,91,0.00,,,0.00,weatherlink.com 1.10,2013-04-21 08:03:00,
2013-04-21 04:18:00,21.7,20.0,30.55,NW,326,0.0,0.0,91,0.00,,,0.00,weatherlink.com 1.10,2013-04-21 08:18:00,
2013-04-21 04:33:00,21.5,19.0,30.55,NW,326,0.0,0.0,91,0.00,,,0.00,weatherlink.com 1.10,2013-04-21 08:33:00,
2013-04-21 04:48:00,21.6,20.0,30.56,NW,326,0.0,0.0,92,0.00,,,0.00,weatherlink.com 1.10,2013-04-21 08:48:00,
2013-04-21 05:03:00,21.7,20.0,30.56,NW,326,0.0,0.0,92,0.00,,,0.00,weatherlink.com 1.10,2013-04-21 09:03:00,
2013-04-21 05:18:00,21.4,20.0,30.57,NW,326,0.0,0.0,92,0.00,,,0.00,weatherlink.com 1.10,2013-04-21 09:18:00,
2013-04-21 05:33:00,21.7,20.0,30.57,NW,326,0.0,0.0,92,0.00,,,0.00,weatherlink.com 1.10,2013-04-21 09:33:00,
2013-04-21 05:48:00,21.9,20.0,30.58,NW,326,0.0,0.0,92,0.00,,,0.00,weatherlink.com 1.10,2013-04-21 09:48:00,
2013-04-21 06:03:00,22.3,20.0,30.58,NW,326,0.0,0.0,91,0.00,,,0.00,weatherlink.com 1.10,2013-04-21 10:03:00,
2013-04-21 06:18:00,22.4,20.0,30.59,NW,326,0.0,0.0,90,0.00,,,0.00,weatherlink.com 1.10,2013-04-21 10:18:00,
2013-04-21 06:33:00,22.7,20.0,30.59,NW,326,0.0,0.0,89,0.00,,,0.00,weatherlink.com 1.10,2013-04-21 10:33:00,
2013-04-21 06:48:00,22.8,20.0,30.60,NW,326,0.0,0.0,90,0.00,,,0.00,weatherlink.com 1.10,2013-04-21 10:48:00,
2013-04-21 07:03:00,22.6,20.0,30.61,NNW,328,0.0,0.0,90,0.00,,,0.00,weatherlink.com 1.10,2013-04-21 11:03:00,
2013-04-21 07:18:00,22.8,20.0,30.61,NNW,327,0.0,0.0,90,0.00,,,0.00,weatherlink.com 1.10,2013-04-21 11:18:00,
2013-04-21 07:33:00,23.0,21.0,30.61,NNW,328,0.0,0.0,90,0.00,,,0.00,weatherlink.com 1.10,2013-04-21 11:33:00,
2013-04-21 07:49:00,24.0,21.0,30.62,NW,324,0.0,0.0,89,0.00,,,0.00,weatherlink.com 1.10,2013-04-21 11:49:00,
2013-04-21 08:03:00,25.7,23.0,30.62,SSE,165,0.0,1.0,88,0.00,,,0.00,weatherlink.com 1.10,2013-04-21 12:03:00,
2013-04-21 08:18:00,28.0,23.0,30.63,SE,138,0.0,3.0,81,0.00,,,0.00,weatherlink.com 1.10,2013-04-21 12:18:00,
2013-04-21 08:33:00,29.7,23.0,30.63,SSE,149,1.0,2.0,77,0.00,,,0.00,weatherlink.com 1.10,2013-04-21 12:33:00,
2013-04-21 08:48:00,32.2,24.0,30.63,SSW,211,1.0,3.0,71,0.00,,,0.00,weatherlink.com 1.10,2013-04-21 12:48:00,
2013-04-21 09:04:00,34.3,24.0,30.64,East,91,2.0,6.0,65,0.00,,,0.00,weatherlink.com 1.10,2013-04-21 13:04:00,
2013-04-21 09:19:00,35.6,23.0,30.63,SE,134,1.0,8.0,61,0.00,,,0.00,weatherlink.com 1.10,2013-04-21 13:19:00,
2013-04-21 09:34:00,36.7,23.0,30.64,NW,326,1.0,7.0,59,0.00,,,0.00,weatherlink.com 1.10,2013-04-21 13:34:00,
2013-04-21 09:49:00,37.1,24.0,30.64,SE,124,2.0,11.0,59,0.00,,,0.00,weatherlink.com 1.10,2013-04-21 13:49:00,
2013-04-21 10:03:00,37.5,24.0,30.64,SE,139,3.0,10.0,58,0.00,,,0.00,weatherlink.com 1.10,2013-04-21 14:03:00,
2013-04-21 10:18:00,38.5,23.0,30.64,South,177,5.0,9.0,54,0.00,,,0.00,weatherlink.com 1.10,2013-04-21 14:18:00,
2013-04-21 10:33:00,39.3,24.0,30.64,SE,143,8.0,10.0,54,0.00,,,0.00,weatherlink.com 1.10,2013-04-21 14:33:00,
2013-04-21 10:48:00,39.4,22.0,30.64,SSE,159,8.0,11.0,50,0.00,,,0.00,weatherlink.com 1.10,2013-04-21 14:48:00,
2013-04-21 11:03:00,40.3,22.0,30.64,SSE,158,6.0,9.0,48,0.00,,,0.00,weatherlink.com 1.10,2013-04-21 15:03:00,
2013-04-21 11:19:00,41.5,23.0,30.63,West,266,3.0,9.0,48,0.00,,,0.00,weatherlink.com 1.10,2013-04-21 15:19:00,
2013-04-21 11:34:00,41.7,23.0,30.64,SE,138,3.0,9.0,48,0.00,,,0.00,weatherlink.com 1.10,2013-04-21 15:34:00,
2013-04-21 11:49:00,43.0,24.0,30.64,SSE,156,4.0,8.0,47,0.00,,,0.00,weatherlink.com 1.10,2013-04-21 15:49:00,
2013-04-21 12:04:00,43.2,24.0,30.64,WSW,250,3.0,9.0,46,0.00,,,0.00,weatherlink.com 1.10,2013-04-21 16:04:00,
2013-04-21 12:19:00,43.9,25.0,30.63,SE,127,3.0,10.0,47,0.00,,,0.00,weatherlink.com 1.10,2013-04-21 16:19:00,
2013-04-21 12:34:00,44.7,26.0,30.63,SSE,150,1.0,8.0,49,0.00,,,0.00,weatherlink.com 1.10,2013-04-21 16:34:00,
2013-04-21 12:49:00,45.3,24.0,30.62,ESE,117,4.0,10.0,44,0.00,,,0.00,weatherlink.com 1.10,2013-04-21 16:49:00,
2013-04-21 13:04:00,45.9,24.0,30.61,SSE,156,6.0,9.0,43,0.00,,,0.00,weatherlink.com 1.10,2013-04-21 17:04:00,
2013-04-21 13:19:00,45.9,23.0,30.61,SW,228,7.0,10.0,41,0.00,,,0.00,weatherlink.com 1.10,2013-04-21 17:19:00,
2013-04-21 13:34:00,46.4,25.0,30.60,SE,125,1.0,10.0,44,0.00,,,0.00,weatherlink.com 1.10,2013-04-21 17:34:00,
2013-04-21 13:50:00,47.5,26.0,30.59,SW,221,2.0,11.0,44,0.00,,,0.00,weatherlink.com 1.10,2013-04-21 17:50:00,
2013-04-21 14:05:00,47.7,25.0,30.58,WSW,240,3.0,13.0,42,0.00,,,0.00,weatherlink.com 1.10,2013-04-21 18:05:00,
2013-04-21 14:20:00,47.7,25.0,30.58,SSE,152,6.0,12.0,42,0.00,,,0.00,weatherlink.com 1.10,2013-04-21 18:20:00,
2013-04-21 14:34:00,48.4,26.0,30.58,SE,143,11.0,15.0,42,0.00,,,0.00,weatherlink.com 1.10,2013-04-21 18:34:00,
2013-04-21 14:49:00,48.4,27.0,30.57,SSE,152,6.0,12.0,44,0.00,,,0.00,weatherlink.com 1.10,2013-04-21 18:49:00,
2013-04-21 15:19:00,50.3,28.0,30.56,SE,134,5.0,9.0,42,0.00,,,0.00,weatherlink.com 1.10,2013-04-21 19:19:00,
2013-04-21 15:34:00,49.9,27.0,30.55,WSW,240,2.0,12.0,42,0.00,,,0.00,weatherlink.com 1.10,2013-04-21 19:34:00,
2013-04-21 15:49:00,50.8,31.0,30.54,WSW,255,6.0,8.0,46,0.00,,,0.00,weatherlink.com 1.10,2013-04-21 19:49:00,
2013-04-21 16:04:00,50.3,28.0,30.53,NE,56,4.0,11.0,42,0.00,,,0.00,weatherlink.com 1.10,2013-04-21 20:04:00,
2013-04-21 16:19:00,51.2,27.0,30.52,SE,134,2.0,10.0,40,0.00,,,0.00,weatherlink.com 1.10,2013-04-21 20:19:00,
2013-04-21 16:34:00,50.9,28.0,30.51,WSW,248,3.0,12.0,42,0.00,,,0.00,weatherlink.com 1.10,2013-04-21 20:34:00,
2013-04-21 16:49:00,51.1,29.0,30.50,South,184,5.0,12.0,42,0.00,,,0.00,weatherlink.com 1.10,2013-04-21 20:49:00,
2013-04-21 17:04:00,51.2,27.0,30.50,SSE,160,2.0,13.0,39,0.00,,,0.00,weatherlink.com 1.10,2013-04-21 21:04:00,
2013-04-21 17:19:00,51.0,28.0,30.50,SSE,155,3.0,9.0,42,0.00,,,0.00,weatherlink.com 1.10,2013-04-21 21:19:00,
2013-04-21 17:34:00,51.2,28.0,30.49,SSW,197,3.0,10.0,41,0.00,,,0.00,weatherlink.com 1.10,2013-04-21 21:34:00,
2013-04-21 17:49:00,51.1,27.0,30.49,SSE,161,7.0,9.0,40,0.00,,,0.00,weatherlink.com 1.10,2013-04-21 21:49:00,
2013-04-21 18:04:00,50.3,28.0,30.48,SSE,165,6.0,13.0,42,0.00,,,0.00,weatherlink.com 1.10,2013-04-21 22:04:00,
2013-04-21 18:20:00,50.4,29.0,30.48,SE,131,2.0,9.0,44,0.00,,,0.00,weatherlink.com 1.10,2013-04-21 22:20:00,
2013-04-21 18:35:00,50.3,29.0,30.48,South,186,6.0,11.0,44,0.00,,,0.00,weatherlink.com 1.10,2013-04-21 22:35:00,
2013-04-21 18:50:00,50.1,29.0,30.48,SSW,193,3.0,8.0,45,0.00,,,0.00,weatherlink.com 1.10,2013-04-21 22:50:00,
2013-04-21 19:05:00,49.7,29.0,30.48,SSE,166,5.0,11.0,45,0.00,,,0.00,weatherlink.com 1.10,2013-04-21 23:05:00,
2013-04-21 19:20:00,49.3,30.0,30.47,ESE,119,3.0,11.0,47,0.00,,,0.00,weatherlink.com 1.10,2013-04-21 23:20:00,
2013-04-21 19:35:00,48.9,29.0,30.46,East,99,1.0,11.0,47,0.00,,,0.00,weatherlink.com 1.10,2013-04-21 23:35:00,
2013-04-21 19:50:00,48.3,29.0,30.46,ENE,71,6.0,10.0,48,0.00,,,0.00,weatherlink.com 1.10,2013-04-21 23:50:00,
2013-04-21 20:05:00,47.8,30.0,30.47,ESE,121,4.0,7.0,51,0.00,,,0.00,weatherlink.com 1.10,2013-04-22 00:05:00,
2013-04-21 20:20:00,47.2,30.0,30.47,ESE,108,1.0,7.0,52,0.00,,,0.00,weatherlink.com 1.10,2013-04-22 00:20:00,
2013-04-21 20:35:00,46.6,31.0,30.47,SW,215,1.0,6.0,54,0.00,,,0.00,weatherlink.com 1.10,2013-04-22 00:35:00,
2013-04-21 20:49:00,46.0,30.0,30.47,SE,131,1.0,5.0,55,0.00,,,0.00,weatherlink.com 1.10,2013-04-22 00:49:00,
2013-04-21 21:04:00,45.6,31.0,30.47,SSE,149,1.0,7.0,57,0.00,,,0.00,weatherlink.com 1.10,2013-04-22 01:04:00,
2013-04-21 21:19:00,45.1,31.0,30.47,SSW,205,2.0,5.0,59,0.00,,,0.00,weatherlink.com 1.10,2013-04-22 01:19:00,
2013-04-21 21:34:00,44.6,31.0,30.47,SE,134,1.0,5.0,60,0.00,,,0.00,weatherlink.com 1.10,2013-04-22 01:34:00,
2013-04-21 21:49:00,44.3,31.0,30.47,South,173,2.0,4.0,61,0.00,,,0.00,weatherlink.com 1.10,2013-04-22 01:49:00,
2013-04-21 22:05:00,43.9,31.0,30.47,SSE,148,4.0,7.0,62,0.00,,,0.00,weatherlink.com 1.10,2013-04-22 02:05:00,
2013-04-21 22:20:00,43.9,33.0,30.47,SSE,167,3.0,12.0,66,0.00,,,0.00,weatherlink.com 1.10,2013-04-22 02:20:00,
2013-04-21 22:35:00,43.4,34.0,30.47,SSE,148,1.0,8.0,69,0.00,,,0.00,weatherlink.com 1.10,2013-04-22 02:35:00,
2013-04-21 22:50:00,43.0,34.0,30.47,ESE,115,4.0,8.0,70,0.00,,,0.00,weatherlink.com 1.10,2013-04-22 02:50:00,
2013-04-21 23:05:00,42.4,34.0,30.48,SE,124,2.0,6.0,71,0.00,,,0.00,weatherlink.com 1.10,2013-04-22 03:05:00,
2013-04-21 23:20:00,42.0,34.0,30.47,SE,141,0.0,8.0,72,0.00,,,0.00,weatherlink.com 1.10,2013-04-22 03:20:00,
2013-04-21 23:35:00,41.3,34.0,30.47,South,170,3.0,10.0,74,0.00,,,0.00,weatherlink.com 1.10,2013-04-22 03:35:00,
2013-04-21 23:50:00,40.9,34.0,30.47,SE,140,2.0,7.0,75,0.00,,,0.00,weatherlink.com 1.10,2013-04-22 03:50:00,